Weather in Svetlolobovo

Russia / Irkutsk Oblast     54˚16′54″N   103˚07′41″E
temp.,
°C
wind,
m/s
gust,
m/s
humid.,
%
clouds,
%
prec.,
mm/h
press.,
hPa
HPBL,
m
16 january, sat
sat1623:00−16˚wnw21096100 0.3 10341082
02:00−17˚wnw21097100 0.8 10351220
05:00−19˚wnw21097100 0.3 10361028
08:00−19˚wnw21098100 0.8 1036998
11:00−17˚nw41094100 0.5 10351093
14:00−17˚nw5990100 0.8 10321132
17:00−18˚nnw3895100 0.3 1032687
20:00−21˚nnw1298100 0.4 103324
17 january, sun
sun1723:00−23˚n1199100 0.1 103320
02:00−23˚ne1199100 0.3 103220
05:00−24˚ene1199100 0.2 103120
08:00−24˚e1199100 0.4 103119
11:00−23˚ese1296100 0.1 1030144
14:00−21˚ese1291100 0.1 1027301
17:00−22˚ese1196100 0.0 102620
20:00−22˚e1295100 0.0 102522
18 january, mon
mon1823:00−22˚e2298100 0.1 1022122
02:00−22˚ese2298100 0.3 1019120
05:00−20˚e1199100 0.2 101784
08:00−19˚sse2398100 1.6 1017135
11:00−17˚s2396100 0.3 1016145
14:00−15˚s2495100 0.3 1014252
17:00−16˚sse2297100 0.0 101248
20:00−17˚s2297100 0.0 101122
19 january, tue
tue1923:00−15˚ssw2396100 0.0 101083
02:00−17˚ssw119888 0.1 101220
05:00−14˚wsw239081 0.0 101329
08:00−14˚w398990 0.0 1016347
11:00−15˚wsw2695100 0.0 1019199
14:00−12˚w3683100 0.0 1020925
17:00−15˚sw2392100 0.0 102041
20:00−18˚s129297 0.0 102120
20 january, wed
wed2023:00−17˚se1294100 0.0 101922
02:00−19˚e1194100 0.0 101620
05:00−18˚se129199 0.0 101320
08:00−19˚sse2293100 0.0 101020
11:00−14˚wnw1394100 0.1 1011217
14:00−11˚nw51187100 0.2 10151225
17:00−16˚wnw228691 0.0 101920
20:00−19˚w119087 0.0 102220